Starlink 30398

operational
NORAD ID: 57815 Int'l Des: 2023-138 Owner: SPXS Country: US Constellation: starlink
LEOCIRCULAR

Über Starlink 30398

Beschreibung wird geladen...

Live-Position

3D-Globus wird geladen...

Nächste Überflüge

Höhenverlauf

Altitude vs Time

uPlot chart will show altitude changes over time

Zweizeiliger Elementsatz

1 57815U 23138H 25352.31518679 -.00000642 00000-0 -32435-4 0 9995
2 57815 43.0034 318.3716 0001064 276.6410 83.4311 15.02535275126372
Epoch: 18. Dez. 2025 • Age: 13 hours

Aktueller Status

Höhe 562.7 km
Geschwindigkeit 7.59 km/s
Subsatellitenpunkt 42.27°N, 6.77°W
Startdatum 9. Sept. 2023
Alter 2.2 years
Typ internet

Technische Details

Klassifizierung Payload
Masse 730.00 kg
Trockenmasse 700.00 kg
Gesamtmasse 730.00 kg
Länge 0.30 m
Durchmesser 4.10 m
Spannweite 29.00 m
Form Box + pan
Hersteller SPXS
Bus-Typ Starlink V2M
Phasenstatus In Orbit
Besitzer/Staat SPXS/US

Große Konstellationen

Loading constellations...